Regional Weather Roundup
Issued by NWS Albany, NY

Home | Current Version | Previous Version | Graphics & Text | Print | Product List | Glossary Off
Versions: 1 2 3 4 5 6 7 8 9 10 11 12 13 14 15 16 17 18 19 20 21 22 23 24 25 26 27 28 29 30 31 32 33 34 35 36 37 38 39 40 41 42 43 44 45 46 47 48 49 50

000
ASUS41 KALY 231810
RWRALY

NEW YORK STATE HOURLY WEATHER ROUNDUP
NATIONAL WEATHER SERVICE ALBANY NY
200 PM EDT WED JUL 23 2014

NOTE: "FAIR" INDICATES FEW OR NO CLOUDS BELOW 12,000 FEET WITH NO
SIGNIFICANT WEATHER AND/OR NO OBSTRUCTIONS TO VISIBILITY.

NYZ032-033-038>043-046>054-057>066-NYZ062>081-231900-
EAST


CITY           SKY/WX    TMP DP  RH WIND       PRES   REMARKS
ALBANY         PTSUNNY   89  73  59 S12       29.79F HX  97
GLENS FALLS    PTSUNNY   87  70  56 SW12G20   29.76F HX  92
POUGHKEEPSIE   MOSUNNY   88  72  58 S8        29.82F HX  94
NEWBURGH       MOSUNNY   88  73  62 SW12      29.87F HX  96
MONTGOMERY     MOSUNNY   90  72  55 SW12      29.84F HX  97
WHITE PLAINS   MOSUNNY   86  72  62 S10G16    29.88F HX  92
ISLIP          MOSUNNY   84  71  65 S14       29.89F
NEW YORK CITY  MOSUNNY   87  72  60 S15G22    29.87F HX  93
CENTRAL PARK   PTSUNNY   85  72  65 SW7       29.90F HX  91
$$

NYZ005>009-017-018-044>046-055-056-231900-
CENTRAL


CITY           SKY/WX    TMP DP  RH WIND       PRES   REMARKS
FULTON         LGT RAIN  74  68  81 NW14      29.84R
SYRACUSE       TSTM      75  72  88 NW12      29.81S FOG
ROME           PTSUNNY   84  70  62 W9        29.80F
ELMIRA         SUNNY     88  68  51 W12       29.84F HX  91
BINGHAMTON     MOSUNNY   84  68  58 W10       29.88F
MONTICELLO     SUNNY     84  68  58 SW12      29.90F
$$

NYZ026>034-041>043-231900-
NORTH


CITY           SKY/WX    TMP DP  RH WIND       PRES   REMARKS
WATERTOWN      CLOUDY    75  69  81 SW6       29.81F HAZE
FORT DRUM      NOT AVBL
MASSENA        CLOUDY    75  71  87 W8        29.77F
SARANAC LAKE   LGT RAIN  68  67  96 VRB3      29.82F VSB 1
PLATTSBURGH    LGT RAIN  73  71  93 CALM      29.74F FOG
$$

NYZ001>004-010>016-019>021-231900-
WEST


CITY           SKY/WX    TMP DP  RH WIND       PRES   REMARKS
NIAGARA FALLS  PTSUNNY   72  60  66 NW17      29.91F
BUFFALO        PTSUNNY   72  63  73 NW13G20   29.92R
DUNKIRK        LGT RAIN  69  65  86 W8        29.95R
JAMESTOWN      CLOUDY    66  64  94 NW10      29.98R VSB 1/2
WELLSVILLE     PTSUNNY   83  66  56 W12G18    29.94F
ROCHESTER      LGT RAIN  69  65  86 W7        29.88F
PENN YAN       PTSUNNY   83  68  60 NW14G22   29.85F
$$

             KEY
       WCI = WIND CHILL INDEX
       VSB = VISIBILITY
       HX  = HEAT INDEX
$$


USA.gov is the U.S. government's official web portal to all federal, state and local government web resources and services.